Regional Weather Roundup
Issued by NWS

Home | Current Version | Previous Version | Graphics & Text | Print | Product List | Glossary On
Versions: 1 2 3 4 5 6 7 8 9 10 11 12 13 14 15 16 17 18 19 20 21 22 23 24 25 26 27 28 29 30 31 32 33 34 35 36 37 38 39 40 41 42 43 44 45 46 47 48 49 50
000
ASUS43 KIND 240009
RWRIN

WEATHER ROUNDUP FOR INDIANA
NATIONAL WEATHER SERVICE INDIANAPOLIS IN
800 PM EDT MON OCT 23 2017

NOTE: "FAIR" INDICATES FEW OR NO CLOUDS BELOW 12,000 FEET WITH NO
SIGNIFICANT WEATHER AND/OR OBSTRUCTIONS TO VISIBILITY.

* - STATION DOES NOT REPORT WEATHER SUCH AS PRECIPITATION OR FOG.

+ - STATION NOT QUALITY CONTROLLED BY THE NATIONAL WEATHER SERVICE.
    USE DATA WITH CAUTION...ESPECIALLY DEWPOINT AND RELATIVE
    HUMIDITY OBSERVATIONS.

INZ001>003-010>013-019-020-240100-
NORTHWEST INDIANA

CITY           SKY/WX    TMP DP  RH WIND       PRES   REMARKS
GARY /AIRPORT/ CLOUDY    54  50  87 W14       29.68R
KNOX *+        CLOUDY    50  48  93 W10       29.66R
LA PORTE +     CLOUDY    51  49  90 W9        29.66R
6HR MIN TEMP:  50; 6HR MAX TEMP:  54; 6HR PCP:  0.01;

MICHIGAN CITY+ CLOUDY    52  50  93 W8        29.67R
MONTICELLO +   CLOUDY    50  49  95 W9        29.67F
6HR MIN TEMP:  48; 6HR MAX TEMP:  55; 6HR PCP:  0.33;

RENSSELAER +   CLOUDY    50  46  87 W8        29.70R
VALPARAISO     CLOUDY    52  50  93 W13       29.68R
6HR MIN TEMP:  51; 6HR MAX TEMP:  55; 6HR PCP:  0.19;


$$

LMZ046-743>745-240100-
SOUTHERN LAKE MICHIGAN

STATION/POSITION TIME  TEMP    WIND        PRES    WAVE
                       AIR SEA DIR/SP/G            HT
                 (UTC) (F)     (DEG/KT/KT) (MB)    (FT)
BURNS HARBOR     2340   54     280/ 16/ 19 1005.1R
MICHIGAN CITY    2340   54     280/ 20/ 21   N/A
5NW MICH CITY    0000   54 57  290/ 16/ 19   N/A     5

$$

INZ004-005-014>016-021>024-240100-
NORTH CENTRAL INDIANA

CITY           SKY/WX    TMP DP  RH WIND       PRES   REMARKS
ELKHART        LGT RAIN  54  50  87 W17G23    29.59R
GOSHEN         LGT RAIN  53  49  86 W17G31    29.59R
6HR MIN TEMP:  53; 6HR MAX TEMP:  61; 6HR PCP:  0.58;

LOGANSPORT +   CLOUDY    48  46  93 W7        29.68F
PERU/GRISSOM   CLOUDY    49  49 100 W13       29.66F
6HR MIN TEMP:  49; 6HR MAX TEMP:  63; 6HR PCP:  0.52;

SOUTH BEND     CLOUDY    52  52 100 W14       29.62R
6HR MIN TEMP:  51; 6HR MAX TEMP:  54; 6HR PCP:  0.64;

WARSAW +       CLOUDY    50  50 100 W18G25    29.62R

$$

INZ006>009-017-018-025>027-240100-
NORTHEAST INDIANA

CITY           SKY/WX    TMP DP  RH WIND       PRES   REMARKS
AUBURN +       LGT RAIN  54  52  94 W10G20    29.56R
FORT WAYNE     RAIN      52  50  93 W17G24    29.60R FOG
6HR MIN TEMP:  52; 6HR MAX TEMP:  63; 6HR PCP:  0.24;

HUNTINGTON +   RAIN      49  48  96 W15G23    29.63R
6HR MIN TEMP:  49; 6HR MAX TEMP:  62; 6HR PCP:  0.28;

KENDALLVILLE + RAIN      54  53  97 W14G20    29.55R

$$

INZ028-029-035-036-043>045-051>053-240100-
WEST CENTRAL INDIANA

CITY           SKY/WX    TMP DP  RH WIND       PRES   REMARKS
CRAWFORDSVL +  CLOUDY    48  48 100 SW7       29.74R
GREENCASTLE +  CLOUDY    46  46 100 CALM      29.74R
LAFAYETTE      CLOUDY    50  50 100 W7        29.70S
6HR MIN TEMP:  50; 6HR MAX TEMP:  56; 6HR PCP:  0.34;

TERRE HAUTE    CLOUDY    51  48  89 SW6       29.74S
6HR MIN TEMP:  50; 6HR MAX TEMP:  57; 6HR PCP:  0.10;


$$

INZ030>032-037>040-046>048-054>057-064-065-240100-
CENTRAL INDIANA

CITY           SKY/WX    TMP DP  RH WIND       PRES   REMARKS
CP ATTERBURY + CLOUDY    46  45  93 W7        29.74R
COLUMBUS       CLOUDY    48  46  93 W14G20    29.72R
FRANKFORT +    CLOUDY    52  50  94 W10       29.71S
                                      6HR PCP:  0.39;

GREENWOOD *+   CLOUDY    51  47  88 W9        29.73R
6HR MIN TEMP:  51; 6HR MAX TEMP:  63;

INDIANAPOLIS   LGT RAIN  48  44  86 SW8       29.72R
6HR MIN TEMP:  47; 6HR MAX TEMP:  60; 6HR PCP:  0.20;

-EAGLE CREEK   LGT RAIN  49  44  83 W7        29.70R
6HR MIN TEMP:  49; 6HR MAX TEMP:  58; 6HR PCP:  0.34;

KOKOMO +       LGT RAIN  49  47  93 W13       29.67F
6HR MIN TEMP:  48; 6HR MAX TEMP:  62; 6HR PCP:  0.49;

MARION +       RAIN      48  46  93 W14G21    29.67R
MT COMFORT *+  CLOUDY    48  48 100 W15G22    29.71R
SHELBYVILLE    LGT RAIN  51  47  86 W12       29.70R
6HR MIN TEMP:  51; 6HR MAX TEMP:  63; 6HR PCP:  0.23;

ZIONSVILLE +   RAIN      47  45  95 NW10      29.70R
6HR MIN TEMP:  46; 6HR MAX TEMP:  59; 6HR PCP:  0.48;


$$

INZ033-034-041-042-049-050-058-059-240100-
EAST CENTRAL INDIANA

CITY           SKY/WX    TMP DP  RH WIND       PRES   REMARKS
MUNCIE         LGT RAIN  51  47  86 W12G26    29.65R
6HR MIN TEMP:  51; 6HR MAX TEMP:  66; 6HR PCP:  0.23;

RICHMOND +     HVY RAIN  54  54 100 NW9       29.65R

$$

INZ060-061-067>069-081>083-085>088-240100-
SOUTHWEST INDIANA

CITY           SKY/WX    TMP DP  RH WIND       PRES   REMARKS
EVANSVILLE     PTCLDY    51  47  86 SW6       29.82S
6HR MIN TEMP:  49; 6HR MAX TEMP:  56; 6HR PCP:  0.06;

HUNTINGBURG +  CLOUDY    48  45  89 W6        29.81R
6HR MIN TEMP:  48; 6HR MAX TEMP:  56; 6HR PCP:  0.04;

WASHINGTON +   CLOUDY    48  46  93 CALM      29.78R
6HR MIN TEMP:  48; 6HR MAX TEMP:  56; 6HR PCP:  0.15;


$$

INZ062-063-066-070>080-084-089>092-240100-
SOUTH CENTRAL AND SOUTHEAST INDIANA

CITY           SKY/WX    TMP DP  RH WIND       PRES   REMARKS
BLOOMINGTON    LGT RAIN  49  45  86 W6        29.75R
6HR MIN TEMP:  49; 6HR MAX TEMP:  57; 6HR PCP:  0.16;

MADISON *+     CLOUDY    54  52  94 W10G24    29.73R
NORTH VERNON + LGT RAIN  48  46  93 W12G24    29.73R
SEYMOUR +      RAIN      50  48  93 NW9       29.75R

$$





USA.gov is the U.S. government's official web portal to all federal, state and local government web resources and services.